Regional Weather Roundup
Issued by NWS Charleston, SC

Current Version | Previous Version | Graphics & Text | Print | Product List | Glossary On
Versions: 1 2 3 4 5 6 7 8 9 10 11 12 13 14 15 16 17 18 19 20 21 22 23 24 25 26 27 28 29 30 31 32 33 34 35 36 37 38 39 40 41 42 43 44 45 46 47 48 49 50
000
ASUS42 KCHS 012110
RWRCHS
REGIONAL WEATHER ROUNDUP
NATIONAL WEATHER SERVICE CHARLESTON SC
500 PM EDT FRI AUG 01 2014

NOTE: "FAIR" INDICATES FEW OR NO CLOUDS BELOW 12,000 FEET WITH NO
SIGNIFICANT WEATHER AND/OR OBSTRUCTIONS TO VISIBILITY.

NOT ALL STATIONS ARE QUALITY CONTROLLED BY THE NATIONAL
WEATHER SERVICE. USE DATA WITH CAUTION...ESPECIALLY
DEWPOINT OBSERVATIONS.

SCZ027-030-031-034>040-042>050-012200-
...SOUTH CAROLINA...

CITY           SKY/WX    TMP DP  RH WIND       PRES   REMARKS
N CHARLESTON   CLOUDY    84  73  69 E6        29.99F HX  90
WATERFRONT PRK   N/A     82 N/A N/A CALM        N/A
FORT JOHNSON   NOT AVBL
MOUNT PLEASANT FAIR      82  77  83 SE7       29.98F HX  91
JOHNS ISLAND   CLEAR     82  66  57 CALM      29.98F
PINOPOLIS        N/A     86  77  74 SE3       29.92F HX  97
MONCKS CORNER  NOT AVBL
SUMMERVILLE    FAIR      84  75  74 SE5       29.99F HX  92
BEAUFORT MCAS  CLOUDY    81  75  82 S8        29.98F
BEAUFORT ARPT  FAIR      81  75  83 SE6       29.97F
HILTON HEAD IS PTSUNNY   81  75  83 E6        29.97F
GEORGETOWN     NOT AVBL
WALTERBORO     CLOUDY    82  81  94 SE6       29.98F HX  95
ORANGEBURG     CLOUDY    85  71  63 NE3       29.99F HX  90
BARNWELL       FAIR      88  70  55 N8        29.99F HX  92
AIKEN          FAIR      77  72  83 NW12      30.06F
MANNING        FAIR      88  73  62 CALM      29.98F HX  96
KINGSTREE      NOT AVBL
COLUMBIA       PTSUNNY   81  70  69 N7        30.02F
SUMTER         CLOUDY    82  75  78 NW13      29.99F
FLORENCE       LGT RAIN  82  75  79 NE7       30.00S
MYRTLE BEACH   PTSUNNY   81  73  78 S12       30.00F
N MYRTLE BEACH CLOUDY    80  73  79 S10       30.01F

$$

GAZ063-065-086>088-099>101-113>116-118-119-134-136>141-150-012200-
...GEORGIA...

CITY           SKY/WX    TMP DP  RH WIND       PRES   REMARKS
SAVANNAH ARPT  CLOUDY    82  74  76 SE12      29.97F
HUNTER AAF     CLOUDY    81  76  84 E8        29.95F
FORT STEWART   CLOUDY    79  75  89 CALM      29.95F
STATESBORO     NOT AVBL
SYLVANIA       MOCLDY    85  77  76 N5        29.99F HX  95
CLAXTON        FAIR      81  75  83 E5        29.98F
THOMSON        CLOUDY    74  72  93 NE6       30.09F
AUGUSTA-BUSH   PTSUNNY   83  70  64 N15       30.00F
AUGUSTA-DANIEL PTSUNNY   78  69  73 N12       30.03F
SWAINSBORO     MOCLDY    90  72  55 E6        29.98F HX  96
VIDALIA          N/A     82  73  74 NE8       29.97F
ALMA           CLOUDY    77  73  87 NE7       29.96F
WAYCROSS       PTSUNNY   87  76  68 NE13      29.95S HX  97
JESUP          FAIR      82  77  83 E7        29.95F HX  91
BRUNSWICK      PTSUNNY   86  73  66 E13       29.94F HX  93
SAINT SIMONS   MOSUNNY   87  75  67 E13       29.94F HX  96

$$

SCZ027-028-034-036>038-045-046-048>050-GAZ119-141-012200-
...LAKE AND SUPPLEMENTAL COASTAL OBSERVATIONS...

STATION/POSITION TIME  TEMP    WIND        PRES    WAVE   SWELL
                       AIR SEA DIR/SP/G            HT/PER HT/PER/DIR
                 (UTC) (F)     (DEG/KT/KT) (MB)    (FT/S) (FT/S/D)
UPR LAKE MARION  NOT AVBL
WINYAH BAY       2000   79     180/  8     1016.0S
LAKE MURRAY      2000   73     350/  4/  8 1017.3R
ACE BASIN NERRS  2000   83     120/  4     1016.0F
FORT PULASKI     2100   82     100/ 12/ 16 1014.7F
SAPELO ISLAND    2000   87      70/ 11     1016.0S

$$

ANZ835-935-AMZ111-154-330-350-352-354-374-450-454-472-012200-
...C-MAN AND BUOY OBSERVATIONS...

STATION/POSITION TIME  TEMP    WIND        PRES    WAVE   SWELL
                       AIR SEA DIR/SP/G            HT/PER HT/PER/DIR
                 (UTC) (F)     (DEG/KT/KT) (MB)    (FT/S) (FT/S/D)
FOLLY BEACH CMAN 2000   79     190/  3/  4 1016.2F
BUOY 41004       2100   80 82  160/ 16/ 19 1014.6S   4/ 6   2/ 8
BUOY 41008       2100   81 86   90/ 16/ 17 1014.2F   3/ 5   2/350/14
5E ST. MARYS GA  2100      86                N/A     2/ 5
FRYING PAN BUOY  NOT AVBL
BUOY 41025       2100          VRB  4/  6  1019.4F   3/ 6   3/ 90/ 6
CAPE LOOKOUT NC  2000   73     150/ 11/ 12 1018.5F
BUOY 41002       1953   81 81  150/ 10/ 12 1019.3    4/ 6   3/110/ 6
BUOY 41010       2100   84 85  110/  8/ 10 1015.7F   2/ 8   2/ 90/ 8
BUOY 41012       NOT AVBL
ST AUGUSTINE FL  2100   83     150/ 13/ 14 1014.8F
CAPERS NEARSHORE 2000   79     190/  6/  8   N/A
FRIPP NEARSHORE  NOT AVBL


$$


USA.gov is the U.S. government's official web portal to all federal, state and local government web resources and services.